FW9262 Weather Reports


Display with metric or nautical units.
time (UTC)temp
F
wind
direction
speed
MPH
gust
MPH
rain 1hr
in
rain 24hr
in
rain mn
in
humidity
%
barometer
mb
20260510114036 60 354 0.0 0.0 0.00 0.00 0.00 92 1015.3
20260510113531 60 351 0.0 0.0 0.00 0.00 0.00 92 1015.3
20260510113029 60 351 0.0 0.0 0.00 0.00 0.00 93 1015.3
20260510112526 60 353 0.0 0.0 0.00 0.00 0.00 93 1014.9
20260510112022 60 352 0.0 0.0 0.00 0.00 0.00 93 1015.3
20260510111519 60 347 0.0 0.0 0.00 0.00 0.00 93 1014.9
20260510111015 60 349 0.0 0.0 0.00 0.00 0.00 93 1014.9
20260510110511 60 352 0.0 0.0 0.00 0.00 0.00 93 1015.3
20260510110008 60 26 1.0 2.0 0.00 0.00 0.00 93 1015.3
20260510105502 60 352 0.0 0.0 0.00 0.00 0.00 93 1014.9
20260510104958 60 350 0.0 0.0 0.00 0.00 0.00 93 1014.9
20260510104455 60 348 0.0 0.0 0.00 0.00 0.00 93 1014.9
20260510103951 60 350 0.0 0.0 0.00 0.00 0.00 93 1015.3
20260510103449 60 8 0.0 1.0 0.00 0.00 0.00 93 1014.9
20260510102944 59 4 0.0 1.0 0.00 0.00 0.00 93 1014.9
20260510102440 59 349 0.0 0.0 0.00 0.00 0.00 93 1014.9
20260510101937 59 347 0.0 0.0 0.00 0.00 0.00 93 1014.9
20260510101434 59 347 0.0 0.0 0.00 0.00 0.00 93 1014.9
20260510100933 59 340 0.0 0.0 0.00 0.00 0.00 93 1014.9
20260510100429 59 341 0.0 0.0 0.00 0.00 0.00 93 1015.3
20260510095925 59 338 0.0 0.0 0.00 0.00 0.00 93 1015.3
20260510095421 59 343 0.0 0.0 0.00 0.00 0.00 94 1015.3
20260510094920 59 336 0.0 0.0 0.00 0.00 0.00 94 1015.3
20260510094414 59 340 0.0 0.0 0.00 0.00 0.00 94 1015.3
20260510093911 59 322 1.0 2.0 0.00 0.00 0.00 94 1015.3
20260510093407 59 3 0.0 0.0 0.00 0.00 0.00 94 1015.3
20260510092904 59 27 0.0 0.0 0.00 0.00 0.00 94 1015.3
20260510092401 59 28 0.0 0.0 0.00 0.00 0.00 94 1015.3
20260510091855 59 27 0.0 0.0 0.00 0.00 0.00 94 1015.3
20260510091353 59 27 0.0 0.0 0.00 0.00 0.00 94 1015.3
20260510090849 59 27 0.0 0.0 0.00 0.00 0.00 94 1015.3
20260510090346 59 27 0.0 0.0 0.00 0.00 0.00 95 1015.6
20260510085841 59 29 0.0 0.0 0.00 0.00 0.00 95 1015.3
20260510085336 59 30 0.0 1.0 0.00 0.00 0.00 95 1015.6
20260510084832 59 6 0.0 0.0 0.00 0.00 0.00 95 1015.3
20260510084330 59 346 0.0 0.0 0.00 0.00 0.00 95 1015.3
20260510083826 59 350 0.0 0.0 0.00 0.00 0.00 95 1015.3
20260510083323 59 346 0.0 0.0 0.00 0.00 0.00 95 1015.3
20260510082818 59 341 0.0 0.0 0.00 0.00 0.00 95 1015.3
20260510082316 58 345 0.0 0.0 0.00 0.00 0.00 95 1015.3
20260510081815 58 28 1.0 1.0 0.00 0.00 0.00 95 1015.6
20260510081311 59 341 0.0 0.0 0.00 0.00 0.00 95 1016.0
20260510080807 58 346 0.0 0.0 0.00 0.00 0.00 95 1015.6
20260510080302 58 348 0.0 0.0 0.00 0.00 0.00 95 1015.6
20260510075759 58 348 0.0 0.0 0.00 0.00 0.00 95 1016.0
20260510075256 58 342 0.0 0.0 0.00 0.00 0.00 95 1016.0
20260510074753 58 345 0.0 0.0 0.00 0.00 0.00 95 1015.6
20260510074250 58 330 0.0 0.0 0.00 0.00 0.00 95 1016.0
20260510073746 58 295 0.0 0.0 0.00 0.00 0.00 95 1016.0
20260510073242 58 348 0.0 0.0 0.00 0.00 0.00 95 1016.0
20260510072737 58 342 0.0 1.0 0.00 0.00 0.00 95 1016.0
20260510072235 58 343 0.0 0.0 0.00 0.00 0.00 95 1016.0
20260510071731 58 4 0.0 0.0 0.00 0.00 0.00 95 1016.0
20260510071228 58 339 0.0 0.0 0.00 0.00 0.00 95 1016.3
20260510070726 58 334 0.0 2.0 0.00 0.00 0.00 95 1016.0
20260510070223 58 249 2.0 3.0 0.00 0.00 0.00 95 1016.0
20260510065718 58 359 0.0 1.0 0.00 0.00 0.00 95 1015.6
20260510065214 58 343 0.0 1.0 0.00 0.00 0.00 95 1015.6
20260510064711 58 32 0.0 1.0 0.00 0.00 0.00 95 1016.0
20260510064209 58 356 2.0 2.0 0.00 0.00 0.00 95 1016.0
20260510063705 58 347 0.0 1.0 0.00 0.00 0.00 95 1016.0
20260510063201 58 339 0.0 0.0 0.00 0.00 0.00 95 1016.0
20260510062658 58 340 0.0 0.0 0.00 0.00 0.00 95 1016.0
20260510062154 58 315 0.0 1.0 0.00 0.00 0.00 95 1015.6
20260510061649 58 338 1.0 1.0 0.00 0.00 0.00 95 1016.0
20260510061147 58 344 0.0 0.0 0.00 0.00 0.00 95 1016.0
20260510060643 58 356 0.0 1.0 0.00 0.00 0.00 95 1016.0
20260510060139 58 10 0.0 0.0 0.00 0.00 0.00 95 1016.0
20260510055636 58 356 0.0 0.0 0.00 0.00 0.00 95 1016.0
20260510055134 58 340 0.0 0.0 0.00 0.00 0.00 95 1016.0
20260510054629 58 349 0.0 0.0 0.00 0.00 0.00 95 1016.0
20260510054125 58 339 0.0 1.0 0.00 0.00 0.00 95 1016.0
20260510053625 58 341 0.0 1.0 0.00 0.00 0.00 94 1016.0
20260510053121 58 328 0.0 0.0 0.00 0.00 0.00 94 1016.0
20260510052617 58 338 0.0 1.0 0.00 0.00 0.00 94 1016.0
20260510052114 58 341 0.0 0.0 0.00 0.00 0.00 94 1016.0
20260510051609 58 328 0.0 0.0 0.00 0.00 0.00 94 1016.0
20260510051107 58 343 0.0 1.0 0.00 0.00 0.00 94 1016.0
20260510050604 58 351 0.0 1.0 0.00 0.00 0.00 94 1016.0
20260510050101 58 344 0.0 2.0 0.00 0.00 0.00 94 1016.0
20260510045558 58 329 0.0 2.0 0.00 0.00 0.00 94 1016.0
20260510045053 58 339 0.0 2.0 0.00 0.00 0.00 94 1016.0
20260510044550 59 334 0.0 3.0 0.00 0.00 0.00 94 1016.0
20260510044048 59 314 0.0 0.0 0.00 0.00 0.00 94 1016.0
20260510043543 59 340 0.0 0.0 0.00 0.00 0.00 94 1016.0
20260510043039 59 334 0.0 0.0 0.00 0.00 0.00 94 1016.0
20260510042533 59 330 0.0 2.0 0.00 0.00 0.00 94 1015.6
20260510042028 59 334 0.0 1.0 0.00 0.00 0.00 94 1016.0
20260510041526 59 329 0.0 0.0 0.00 0.00 0.00 94 1015.6
20260510041023 59 276 0.0 0.0 0.00 0.00 0.00 94 1015.6
20260510040519 59 189 0.0 0.0 0.00 0.00 0.00 94 1015.6
20260510040015 59 334 1.0 3.0 0.00 0.00 0.00 94 1015.6
20260510035512 58 338 0.0 1.0 0.00 0.00 0.00 94 1015.3
20260510035011 58 270 1.0 3.0 0.00 0.00 0.00 94 1015.3
20260510034510 58 317 1.0 2.0 0.00 0.00 0.00 94 1015.3
20260510034006 59 266 2.0 3.0 0.00 0.00 0.00 93 1014.9
20260510033502 59 336 0.0 2.0 0.00 0.00 0.00 93 1014.9
20260510033000 59 326 2.0 3.0 0.00 0.00 0.00 93 1015.3
20260510032457 59 195 4.0 6.0 0.00 0.00 0.00 93 1015.3
20260510031951 59 293 1.0 2.0 0.00 0.00 0.00 93 1015.3
20260510031447 59 264 1.0 2.0 0.00 0.00 0.00 92 1014.9
20260510030943 60 295 3.0 4.0 0.00 0.00 0.00 92 1014.9
20260510030438 60 308 1.0 2.0 0.00 0.00 0.00 92 1014.9
20260510025936 60 340 0.0 2.0 0.00 0.00 0.00 92 1014.6
20260510025433 60 339 1.0 3.0 0.00 0.00 0.00 92 1014.6
20260510024931 60 292 0.0 0.0 0.00 0.00 0.00 92 1014.6
20260510024427 60 342 0.0 2.0 0.00 0.00 0.00 92 1014.6
20260510023923 60 267 1.0 3.0 0.00 0.00 0.00 92 1014.6
20260510023419 60 294 2.0 3.0 0.00 0.00 0.00 91 1014.6
20260510022917 60 325 1.0 3.0 0.00 0.00 0.00 91 1014.6
20260510022415 60 304 1.0 2.0 0.00 0.00 0.00 91 1014.6
20260510021914 60 278 1.0 2.0 0.00 0.00 0.00 91 1014.6
20260510021413 60 338 0.0 2.0 0.00 0.00 0.00 91 1014.3
20260510020909 60 286 1.0 2.0 0.00 0.00 0.00 90 1014.3
20260510020404 61 254 2.0 4.0 0.00 0.00 0.00 89 1014.3
20260510015900 61 338 2.0 3.0 0.00 0.00 0.00 89 1014.3
20260510015355 61 231 2.0 2.0 0.00 0.00 0.00 89 1014.3
20260510014851 61 255 3.0 4.0 0.00 0.00 0.00 89 1014.3
20260510014348 61 324 0.0 3.0 0.00 0.00 0.00 89 1014.3
20260510013844 61 309 2.0 6.0 0.00 0.00 0.00 89 1014.3
20260510013340 61 250 2.0 7.0 0.00 0.00 0.00 89 1014.6
20260510012836 62 255 2.0 4.0 0.00 0.00 0.00 88 1014.3
20260510012335 62 209 3.0 4.0 0.00 0.00 0.00 88 1014.3
20260510011831 62 235 3.0 3.0 0.00 0.00 0.00 87 1014.3
20260510011326 62 336 1.0 4.0 0.00 0.00 0.00 87 1014.3
20260510010823 62 218 3.0 4.0 0.00 0.00 0.00 87 1014.3
20260510010320 62 288 2.0 3.0 0.00 0.00 0.00 87 1014.3
20260510005817 62 288 1.0 4.0 0.00 0.00 0.00 87 1014.3
20260510005313 63 291 1.0 3.0 0.00 0.00 0.00 87 1014.3
20260510004811 62 339 1.0 4.0 0.00 0.00 0.00 87 1013.9
20260510004308 63 277 4.0 7.0 0.00 0.00 0.00 87 1014.3
20260510003805 63 267 4.0 6.0 0.00 0.00 0.00 86 1014.3
20260510003302 63 266 4.0 6.0 0.00 0.00 0.00 85 1014.3
20260510002801 63 239 4.0 7.0 0.00 0.00 0.00 85 1014.3
20260510002259 64 298 1.0 6.0 0.00 0.00 0.00 84 1014.3
20260510001755 64 280 4.0 6.0 0.00 0.00 0.00 83 1014.6
20260510001253 64 346 3.0 6.0 0.00 0.00 0.00 83 1014.3
20260510000748 64 303 1.0 4.0 0.00 0.00 0.00 84 1014.3
20260510000248 64 282 2.0 7.0 0.00 0.00 0.00 84 1014.3
20260509235744 65 236 3.0 6.0 0.00 0.00 0.00 83 1014.3
20260509235240 65 354 1.0 6.0 0.00 0.00 0.00 83 1014.3
20260509234735 65 305 3.0 6.0 0.00 0.00 0.00 83 1014.3
20260509234233 65 355 2.0 4.0 0.00 0.00 0.00 83 1014.3
20260509233731 66 292 4.0 7.0 0.00 0.00 0.00 81 1014.3
20260509233228 66 302 3.0 7.0 0.00 0.00 0.00 80 1014.3
20260509232724 66 291 1.0 6.0 0.00 0.00 0.00 80 1014.3
20260509232221 66 278 2.0 3.0 0.00 0.00 0.00 80 1014.3
20260509231718 66 245 3.0 7.0 0.00 0.00 0.00 80 1014.3
20260509231215 66 217 5.0 7.0 0.00 0.00 0.00 79 1014.3
20260509230713 67 286 5.0 7.0 0.00 0.00 0.00 78 1014.3
20260509230209 66 98 1.0 7.0 0.00 0.00 0.00 80 1014.3
20260509225705 68 180 4.0 6.0 0.00 0.00 0.00 76 1014.3
20260509225201 68 240 3.0 7.0 0.00 0.00 0.00 76 1014.3
20260509224656 69 284 3.0 7.0 0.00 0.00 0.00 74 1014.6
20260509224154 68 279 4.0 6.0 0.00 0.00 0.00 76 1014.6
20260509223650 68 257 6.0 8.0 0.00 0.00 0.00 76 1014.6
20260509223148 69 249 2.0 6.0 0.00 0.00 0.00 75 1014.6
20260509222644 69 341 2.0 8.0 0.00 0.00 0.00 76 1014.6
20260509222140 69 271 2.0 6.0 0.00 0.00 0.00 76 1014.6
20260509221636 68 273 3.0 6.0 0.00 0.00 0.00 76 1014.9
20260509221132 68 2 4.0 7.0 0.00 0.00 0.00 75 1014.9
20260509220628 69 278 4.0 8.0 0.00 0.00 0.00 76 1014.9
20260509220124 69 268 5.0 8.0 0.00 0.00 0.00 74 1014.9
20260509215620 70 265 1.0 6.0 0.00 0.00 0.00 73 1014.9
20260509215117 69 319 2.0 6.0 0.00 0.00 0.00 74 1015.3
20260509214614 69 318 1.0 6.0 0.00 0.00 0.00 75 1014.9
20260509214111 68 200 4.0 6.0 0.00 0.00 0.00 74 1014.9
20260509213607 68 255 5.0 6.0 0.00 0.00 0.00 76 1014.9
20260509213104 69 307 4.0 7.0 0.00 0.00 0.00 74 1014.9
20260509212601 70 244 2.0 3.0 0.00 0.00 0.00 72 1015.3
20260509212058 70 279 3.0 7.0 0.00 0.00 0.00 72 1015.3
20260509211554 69 41 3.0 8.0 0.00 0.00 0.00 73 1015.3
20260509211050 70 287 4.0 6.0 0.00 0.00 0.00 72 1015.3
20260509210548 70 220 4.0 6.0 0.00 0.00 0.00 72 1015.3
20260509210044 70 267 4.0 4.0 0.00 0.00 0.00 72 1015.3
20260509205544 71 287 4.0 6.0 0.00 0.00 0.00 71 1015.6
20260509205039 70 178 2.0 6.0 0.00 0.00 0.00 73 1015.6
20260509204536 69 321 1.0 7.0 0.00 0.00 0.00 74 1015.6
20260509204032 71 255 2.0 8.0 0.00 0.00 0.00 72 1015.6
20260509203528 70 253 3.0 6.0 0.00 0.00 0.00 73 1015.6
20260509203027 69 219 2.0 8.0 0.00 0.00 0.00 74 1016.0
20260509202521 70 272 3.0 7.0 0.00 0.00 0.00 74 1016.0
20260509202017 70 262 4.0 7.0 0.00 0.00 0.00 73 1015.6
20260509201512 71 248 5.0 7.0 0.00 0.00 0.00 70 1016.0
20260509201009 71 219 2.0 6.0 0.00 0.00 0.00 71 1015.6
20260509200504 70 258 2.0 6.0 0.00 0.00 0.00 73 1016.0
20260509200001 69 296 3.0 6.0 0.00 0.00 0.00 74 1016.0
20260509195456 70 269 4.0 6.0 0.00 0.00 0.00 73 1016.0
20260509194955 70 245 3.0 6.0 0.00 0.00 0.00 72 1016.0
20260509194451 70 214 1.0 4.0 0.00 0.00 0.00 74 1016.0
20260509193949 71 291 3.0 6.0 0.00 0.00 0.00 72 1016.0
20260509193448 70 234 1.0 6.0 0.00 0.00 0.00 74 1016.0
20260509192945 69 234 4.0 6.0 0.00 0.00 0.00 74 1016.0
20260509192442 69 204 5.0 8.0 0.00 0.00 0.00 74 1016.0
20260509191937 69 267 3.0 4.0 0.00 0.00 0.00 74 1016.3
20260509191432 70 309 1.0 6.0 0.00 0.00 0.00 74 1016.3
20260509190928 69 244 1.0 7.0 0.00 0.00 0.00 75 1016.3
20260509190426 69 241 1.0 6.0 0.00 0.00 0.00 75 1016.3
20260509185923 69 352 1.0 6.0 0.00 0.00 0.00 75 1016.6
20260509185421 68 296 2.0 4.0 0.00 0.00 0.00 76 1016.3
20260509184917 69 235 4.0 7.0 0.00 0.00 0.00 75 1016.6
20260509184414 68 307 2.0 6.0 0.00 0.00 0.00 77 1016.3
20260509183911 69 304 2.0 7.0 0.00 0.00 0.00 76 1016.3
20260509183405 69 313 2.0 3.0 0.00 0.00 0.00 75 1016.3
20260509182902 69 244 2.0 6.0 0.00 0.00 0.00 75 1016.3
20260509182359 69 239 2.0 3.0 0.00 0.00 0.00 75 1016.3
20260509181856 69 8 1.0 3.0 0.00 0.00 0.00 76 1016.3
20260509181353 68 262 2.0 3.0 0.00 0.00 0.00 76 1016.6
20260509180851 68 333 1.0 4.0 0.00 0.00 0.00 77 1016.6
20260509180346 68 269 1.0 3.0 0.00 0.00 0.00 78 1016.6
20260509175843 67 335 2.0 6.0 0.00 0.00 0.00 79 1016.6
20260509175340 67 13 2.0 6.0 0.00 0.00 0.00 79 1016.6
20260509174836 67 311 2.0 4.0 0.00 0.00 0.00 79 1016.6
20260509174332 67 299 1.0 4.0 0.00 0.00 0.00 80 1016.6
20260509173827 66 216 2.0 4.0 0.00 0.00 0.00 81 1016.6
20260509173323 66 270 3.0 6.0 0.00 0.00 0.00 81 1017.0
20260509172820 66 323 2.0 4.0 0.00 0.00 0.00 82 1017.0
20260509172316 66 233 1.0 3.0 0.00 0.00 0.00 82 1016.6
20260509171812 66 298 2.0 3.0 0.00 0.00 0.00 82 1016.3
20260509171308 66 247 2.0 4.0 0.00 0.00 0.00 82 1016.3
20260509170805 66 302 2.0 3.0 0.00 0.00 0.00 81 1016.3
20260509170301 67 339 1.0 3.0 0.00 0.00 0.00 80 1016.3
20260509165800 66 335 0.0 1.0 0.00 0.00 0.00 81 1016.3
20260509165255 66 351 0.0 2.0 0.00 0.00 0.00 82 1016.3
20260509164751 66 352 0.0 2.0 0.00 0.00 0.00 81 1016.3
20260509164248 66 347 1.0 3.0 0.00 0.00 0.00 81 1016.3
20260509163745 66 350 0.0 0.0 0.00 0.00 0.00 81 1016.3
20260509163241 65 353 0.0 1.0 0.00 0.00 0.00 82 1016.3
20260509162740 65 356 0.0 0.0 0.00 0.00 0.00 82 1016.3
20260509162233 65 14 0.0 0.0 0.00 0.00 0.00 82 1016.3
20260509161729 65 349 0.0 1.0 0.00 0.00 0.00 82 1016.3
20260509161226 65 350 0.0 0.0 0.00 0.00 0.00 82 1016.6
20260509160721 65 352 0.0 0.0 0.00 0.00 0.00 83 1016.3
20260509160218 64 354 0.0 0.0 0.00 0.00 0.00 84 1016.3
20260509155713 64 357 0.0 1.0 0.00 0.00 0.00 85 1016.3
20260509155210 64 358 0.0 1.0 0.00 0.00 0.00 85 1016.6
20260509154706 64 359 0.0 1.0 0.00 0.00 0.00 86 1016.3
20260509154203 63 342 0.0 1.0 0.00 0.00 0.00 86 1016.6
20260509153700 63 351 0.0 0.0 0.00 0.00 0.00 88 1016.6
20260509153156 63 347 0.0 0.0 0.00 0.00 0.00 88 1016.3
20260509152652 63 339 0.0 0.0 0.00 0.00 0.00 89 1016.6
20260509152149 62 339 1.0 1.0 0.00 0.00 0.00 89 1016.3
20260509151646 62 344 0.0 1.0 0.00 0.00 0.00 89 1016.6
20260509151143 62 349 0.0 0.0 0.00 0.00 0.00 90 1016.3
20260509150641 62 342 0.0 1.0 0.00 0.00 0.00 90 1016.6
20260509150139 62 346 1.0 2.0 0.00 0.00 0.00 90 1016.6
20260509145635 62 338 1.0 1.0 0.00 0.00 0.00 90 1016.3
20260509145130 62 344 2.0 2.0 0.00 0.00 0.00 91 1016.6
20260509144627 61 336 1.0 1.0 0.00 0.00 0.00 91 1016.3
20260509144124 61 319 1.0 2.0 0.00 0.00 0.00 91 1016.3
20260509143621 61 343 1.0 1.0 0.00 0.00 0.00 91 1016.6
20260509143119 61 344 0.0 1.0 0.00 0.00 0.00 91 1016.3
20260509142614 61 344 0.0 0.0 0.00 0.00 0.00 91 1016.3
20260509142111 61 340 0.0 0.0 0.00 0.00 0.00 91 1016.3
20260509141607 61 342 0.0 1.0 0.00 0.00 0.00 92 1016.3
20260509141103 61 348 0.0 1.0 0.00 0.00 0.00 92 1016.3
20260509140600 60 345 0.0 1.0 0.00 0.00 0.00 92 1016.3
20260509140058 60 349 0.0 1.0 0.00 0.00 0.00 92 1016.3
20260509135555 60 348 0.0 0.0 0.00 0.00 0.00 92 1016.3
20260509135053 60 335 0.0 1.0 0.00 0.00 0.00 92 1016.3
20260509134549 60 350 1.0 1.0 0.00 0.00 0.00 92 1016.0
20260509134047 60 345 0.0 2.0 0.00 0.00 0.00 92 1016.3
20260509133544 60 339 2.0 2.0 0.00 0.00 0.00 92 1016.3
20260509133042 60 334 1.0 1.0 0.00 0.00 0.00 92 1016.0
20260509132540 60 338 0.0 2.0 0.00 0.00 0.00 92 1016.0
20260509132038 60 341 2.0 2.0 0.00 0.00 0.00 92 1016.0
20260509131533 60 332 2.0 2.0 0.00 0.00 0.00 92 1016.0
20260509131031 60 340 1.0 1.0 0.00 0.00 0.00 91 1016.0
20260509130526 60 350 0.0 1.0 0.00 0.00 0.00 91 1016.0
20260509130023 61 337 0.0 1.0 0.00 0.00 0.00 91 1015.6
20260509125520 61 346 1.0 2.0 0.00 0.00 0.00 90 1016.0
20260509125016 61 321 2.0 2.0 0.00 0.00 0.00 90 1016.0
20260509124513 61 345 1.0 1.0 0.00 0.00 0.00 90 1016.0
20260509124010 62 347 2.0 2.0 0.00 0.00 0.00 89 1016.0
20260509123508 62 0 0.0 1.0 0.00 0.00 0.00 88 1016.0
20260509123004 62 7 1.0 2.0 0.00 0.00 0.00 88 1015.6
20260509122500 62 8 0.0 0.0 0.00 0.00 0.00 88 1016.0
20260509121957 62 12 0.0 0.0 0.00 0.00 0.00 88 1015.6
20260509121454 61 10 0.0 2.0 0.00 0.00 0.00 88 1015.6
20260509120952 61 15 1.0 1.0 0.00 0.00 0.00 88 1015.6
20260509120450 61 13 0.0 2.0 0.00 0.00 0.00 88 1015.6
20260509115948 61 11 0.0 1.0 0.00 0.00 0.00 88 1016.0
20260509115445 61 10 0.0 1.0 0.00 0.00 0.00 89 1016.0
20260509114942 61 12 0.0 2.0 0.00 0.00 0.00 89 1015.6
20260509114440 61 12 1.0 1.0 0.00 0.00 0.00 89 1016.0